Weather History for Kalamata, Greece

Change the Weather History Date:

Sunday, December 30, 2012

  Actual Average Record
Temperature  
Mean Temperature 54 °F -  
Max Temperature 64 °F 59 °F 64 °F (2002)
Min Temperature 44 °F 42 °F 37 °F (2007)
Degree Days  
Heating Degree Days 11    
Growing Degree Days 4 (Base 50)    
Moisture  
Dew Point 40 °F    
Average Humidity 57    
Maximum Humidity 81    
Minimum Humidity 42    
Precipitation  
Precipitation 0.00 in 0.15 in - ()
Sea Level Pressure  
Sea Level Pressure 30.01 in    
Wind  
Wind Speed 6 mph ()    
Max Wind Speed 13 mph    
Max Gust Speed -    
Visibility 6.2 miles    
Events      
Averages and records for this station are not official NWS values.
T = Trace of Precipitation, MM = Missing Value Source: Averaged Metar Reports

Daily Weather History Graph

Daily Weather History Graph

Search for Another Location

Airport:

Trip Planner

Search our weather history database for the weather conditions in past years. The results will help you decide how hot, cold, wet, or windy it might be!

Date:

Astronomy

Dec. 30, 2012 Rise Set
Actual Time 7:45 AM EET 5:24 PM EET
Civil Twilight 7:16 AM EET 5:53 PM EET
Nautical Twilight 6:43 AM EET 6:25 PM EET
Astronomical Twilight 6:11 AM EET 6:57 PM EET
Moon 7:33 PM EET (12/30) 8:46 AM EET (12/30)
Length of Visible Light 10h 37m
Length of Day
9h 39m
Waning Gibbous, 96% of the Moon is Illuminated
Dec 30
Waning Gibbous
Jan 5
Last Quarter
Jan 11
New
Jan 19
First Quarter
Jan 27
Full

Hourly Weather History & Observations

Time (EET) Temp. Windchill Dew Point Humidity Pressure Visibility Wind Dir Wind Speed Gust Speed Precip Events Conditions
1:50 AM 44.6 °F 41.4 °F 39.2 °F 81% 29.98 in 6.2 mi NW 5.8 mph - N/A   Scattered Clouds
5:20 AM 44.6 °F - 39.2 °F 81% 29.98 in 6.2 mi Calm Calm - N/A   Partly Cloudy
5:50 AM 46.4 °F - 39.2 °F 76% 29.98 in 6.2 mi Calm Calm - N/A   Partly Cloudy
6:20 AM 51.8 °F - 41.0 °F 67% 29.98 in 6.2 mi Calm Calm - N/A   Partly Cloudy
6:50 AM 50.0 °F - 39.2 °F 66% 30.01 in 6.2 mi NNW 9.2 mph - N/A   Partly Cloudy
7:20 AM 44.6 °F 39.7 °F 39.2 °F 81% 30.01 in 6.2 mi NNW 9.2 mph - N/A   Partly Cloudy
7:50 AM 51.8 °F - 39.2 °F 62% 30.01 in 6.2 mi NNW 4.6 mph - N/A   Scattered Clouds
8:20 AM 51.8 °F - 39.2 °F 62% 30.01 in 6.2 mi NNW 10.4 mph - N/A   Scattered Clouds
8:50 AM 50.0 °F - 41.0 °F 71% 30.01 in 6.2 mi NNW 9.2 mph - N/A   Partly Cloudy
9:20 AM 53.6 °F - 41.0 °F 62% 30.01 in 6.2 mi NNW 10.4 mph - N/A   Scattered Clouds
9:50 AM 57.2 °F - 42.8 °F 59% 30.04 in 6.2 mi NNW 6.9 mph - N/A   Partly Cloudy
10:20 AM 59.0 °F - 41.0 °F 51% 30.04 in 6.2 mi NNW 8.1 mph - N/A   Partly Cloudy
10:50 AM 59.0 °F - 41.0 °F 51% 30.04 in 6.2 mi NNW 9.2 mph - N/A   Partly Cloudy
11:20 AM 60.8 °F - 42.8 °F 52% 30.04 in 6.2 mi North 9.2 mph - N/A   Partly Cloudy
11:50 AM 62.6 °F - 41.0 °F 45% 30.01 in 6.2 mi North 5.8 mph - N/A   Partly Cloudy
12:20 PM 64.4 °F - 41.0 °F 42% 30.01 in 6.2 mi NW 6.9 mph - N/A   Partly Cloudy
12:50 PM 64.4 °F - 41.0 °F 42% 30.01 in 6.2 mi NNW 9.2 mph - N/A   Partly Cloudy
1:20 PM 64.4 °F - 42.8 °F 45% 30.01 in 6.2 mi NW 9.2 mph - N/A   Scattered Clouds
1:50 PM 62.6 °F - 42.8 °F 48% 29.98 in 6.2 mi NW 12.7 mph - N/A   Mostly Cloudy
2:20 PM 62.6 °F - 41.0 °F 45% 29.98 in 6.2 mi NNE 6.9 mph - N/A   Scattered Clouds
2:50 PM 60.8 °F - 41.0 °F 48% 29.98 in 6.2 mi NE 8.1 mph - N/A   Scattered Clouds
3:20 PM 60.8 °F - 39.2 °F 45% 30.01 in 6.2 mi NNE 11.5 mph - N/A   Scattered Clouds
3:50 PM 60.8 °F - 39.2 °F 45% 30.01 in 6.2 mi NNE 12.7 mph - N/A   Partly Cloudy
4:20 PM 59.0 °F - 39.2 °F 48% 30.01 in 6.2 mi North 5.8 mph - N/A   Partly Cloudy
4:50 PM 57.2 °F - 39.2 °F 51% 30.01 in - NNW 6.9 mph - N/A   Clear
5:20 PM 57.2 °F - 39.2 °F 51% 30.01 in 6.2 mi North 8.1 mph - N/A   Scattered Clouds
5:50 PM 55.4 °F - 39.2 °F 54% 30.01 in 6.2 mi NNW 6.9 mph - N/A   Scattered Clouds
6:20 PM 55.4 °F - 39.2 °F 54% 30.01 in 6.2 mi North 5.8 mph - N/A   Scattered Clouds
6:50 PM 55.4 °F - 37.4 °F 51% 30.04 in 6.2 mi North 4.6 mph - N/A   Scattered Clouds
7:20 PM 53.6 °F - 39.2 °F 58% 30.04 in 6.2 mi NNW 9.2 mph - N/A   Partly Cloudy
7:50 PM 51.8 °F - 39.2 °F 62% 30.04 in 6.2 mi NNW 9.2 mph - N/A   Partly Cloudy
10:50 PM 48.2 °F - 39.2 °F 71% 30.06 in - NNW 4.6 mph - N/A   Clear